Regional Weather Roundup
Issued by NWS

Home | Current Version | Previous Version | Graphics & Text | Print | Product List | Glossary On
Versions: 1 2 3 4 5 6 7 8 9 10 11 12 13 14 15 16 17 18 19 20 21 22 23 24 25 26 27 28 29 30 31 32 33 34 35 36 37 38 39 40 41 42 43 44 45 46 47 48 49 50
000
ASUS45 KSLC 031110
RWRUT
UTAH REGIONAL WEATHER ROUNDUP
NATIONAL WEATHER SERVICE SALT LAKE CITY UT
500 AM MDT MON AUG 03 2015

UTZ001>011-023>025-031200-

NORTHERN UTAH

CITY           SKY/WX    TMP DP  RH WIND       PRES   REMARKS
BRIGHAM CITY   CLOUDY    71  53  52 E7        30.03S
HILL AFB       LGT RAIN  66  59  77 S15       30.05S
LOGAN          PTCLDY    70  50  49 NE10      29.99F
OGDEN          CLOUDY    68  56  65 S10       30.05R
PROVO AIRPORT  CLOUDY    61  57  88 CALM      30.08S
SALT LAKE CITY LGT RAIN  65  60  84 S6        30.05R
VERNAL         LGT RAIN  62  59  90 N5        30.09R
WENDOVER       CLOUDY    81  39  22 S16       29.99S
HEBER CITY     RAIN      59  55  88 CALM      30.11F
WEST JORDAN    CLOUDY    64  57  77 CALM      30.06F

$$

UTZ012>022-026-027-031200-

SOUTHERN/CENTRAL UTAH

CITY           SKY/WX    TMP DP  RH WIND       PRES   REMARKS
BLANDING       CLOUDY    59  59  99 NE3       30.25S VSB 1/4
BRYCE CANYON   PTCLDY    44  42  93 W6        30.27S
CEDAR CITY     PTCLDY    57  47  69 W5        30.12S
DELTA          CLOUDY    60  56  85 NW10      30.11R
HANKSVILLE     CLEAR     61  59  94 CALM      30.07S
MILFORD        CLOUDY    67  50  54 N13       30.10R
MOAB/CYNLANDS  CLEAR     63  62  97 CALM      30.04F
PRICE          CLOUDY    60  56  86 E7        30.11S
ST GEORGE      CLOUDY    75  52  43 E10       29.95R
KANAB          CLEAR     63  52  67 N13       30.14R

$$

REGIONAL REPORTS     COLORADO/ARIZONA

CITY           SKY/WX    TMP DP  RH WIND       PRES   REMARKS
CRAIG, CO      RAIN      60  32  34 SE9       30.17R
GRAND JUNCTION MOCLDY    62  57  83 CALM      30.07S
RIFLE          CLOUDY    61  58  90 CALM      30.13R
MONTROSE       MOCLDY    61  58  90 S6        30.16S
CORTEZ         CLOUDY    58  55  90 CALM      30.18R
PAGE, AZ       CLEAR     68  60  75 N6        30.05S
GRAND CANYON   CLEAR     46  44  93 CALM      30.22S FOG
KINGMAN        CLEAR     76  42  29 CALM      29.96R
FLAGSTAFF      CLEAR     48  47  96 CALM      30.26S

$$

REGIONAL REPORTS    NEVADA/IDAHO/WYOMING

CITY           SKY/WX    TMP DP  RH WIND       PRES   REMARKS
LAS VEGAS, NV  CLEAR     86  40  19 S7        29.78S
ELY            MOCLDY    53  44  71 S5        30.15S
ELKO           CLOUDY    65  51  60 W3        30.06F
POCATELLO, ID  PTCLDY    77  45  32 S12G17    29.97R
BURLEY         CLOUDY    76  43  30 W15       29.92S
EVANSTON, WY   MOCLDY    59  50  72 SW12      30.18F
ROCK SPRINGS   CLOUDY    63  45  51 SE10      30.17S
KEMMERER       CLOUDY    63  37  39 CALM      30.20S

$$



USA.gov is the U.S. government's official web portal to all federal, state and local government web resources and services.